Theta_e
307 306 306 305 305 304 303 302 303 304 305 301 297 301 296 295 292 303 307 313 310 302 295 296 295 294 295 299 299 299 298 296 298 297 298 295 299 296 295 295 293 294 294 294 292 292 288 291 289 290 291 292 293 295 295 295 293 290 288 290 290 291 282 280 280 283 284 286 288 288 288 290 287 285 282 282 282 282 281 280 279 275 272 275 274 275 280
306 306 306 305 304 303 302 302 302 303 302 299 299 297 295 296 297 299 306 310 308 298 288 289 291 294 295 296 297 300 298 297 295 296 297 296 295 295 295 296 298 294 296 294 291 295 285 291 291 288 290 288 294 293 294 296 291 290 289 287 289 284 283 283 279 279 280 280 279 282 283 283 279 280 281 282 282 283 280 278 278 276 277 278 274 272 280
306 305 305 305 304 303 302 301 300 301 300 301 299 294 297 297 300 299 302 306 303 293 296 292 291 292 293 293 293 294 295 298 299 298 296 298 296 294 293 297 296 294 296 293 295 294 293 287 289 289 287 289 292 292 293 293 290 292 293 293 289 284 280 281 277 275 273 269 267 267 275 281 282 282 281 281 283 281 279 276 278 276 281 280 277 277 284
305 304 304 304 303 303 302 301 301 300 300 299 297 295 295 291 285 295 296 301 299 298 300 296 293 290 291 291 293 294 293 296 298 299 297 299 297 296 295 295 297 292 293 290 291 290 291 290 285 286 286 287 288 291 291 291 290 292 294 289 287 280 281 281 280 279 277 278 274 280 281 279 277 278 278 281 281 280 280 279 276 276 278 277 279 279 279
305 304 304 304 303 302 302 301 300 300 300 299 295 293 293 294 287 289 286 296 296 294 297 295 296 289 294 288 293 290 292 294 295 299 292 297 297 294 295 293 292 290 291 289 289 290 288 289 287 285 284 287 287 290 288 289 290 293 291 290 282 279 279 279 277 279 280 281 281 281 283 279 280 278 280 280 277 277 275 275 273 277 273 273 280 280 277
304 304 303 303 303 302 301 301 300 300 300 299 296 289 292 286 289 295 297 291 286 289 290 295 294 294 294 289 292 290 291 291 289 294 295 294 296 292 291 293 293 292 291 290 285 287 286 287 284 285 285 286 288 286 288 285 290 289 287 286 282 278 275 276 280 278 281 281 281 281 280 280 279 280 279 279 280 276 273 272 278 279 276 275 280 280 278
304 303 303 303 302 302 302 301 301 301 300 300 293 287 291 291 287 289 293 289 291 292 293 295 294 293 294 289 291 287 289 289 292 290 289 291 289 294 286 289 291 291 290 288 285 286 281 281 283 282 280 283 282 282 284 285 286 283 282 284 282 274 270 274 279 275 276 279 278 279 279 278 279 279 279 280 279 278 278 277 279 278 277 279 279 279 278
304 304 304 303 303 302 302 302 301 301 300 298 290 288 287 287 286 283 290 290 286 290 294 293 293 290 293 288 290 289 287 287 289 290 291 286 288 291 288 287 288 290 289 288 285 286 286 282 282 281 280 281 279 279 281 282 284 280 281 284 282 279 272 280 274 272 269 275 278 278 277 277 275 277 277 278 278 277 278 279 278 278 277 279 278 278 278
304 304 303 303 303 302 302 302 301 300 300 291 289 287 289 288 289 289 285 285 285 286 291 291 291 289 290 289 290 291 289 288 290 289 291 289 287 289 288 287 284 285 288 287 287 286 283 283 283 283 283 283 282 281 278 284 279 279 278 279 278 278 271 275 273 269 266 270 273 274 273 275 274 275 276 276 276 275 277 276 278 277 276 277 276 274 276
304 304 303 303 302 302 302 302 302 301 301 289 288 284 291 287 288 290 286 282 289 284 285 289 290 286 290 290 290 290 290 290 290 286 289 286 288 289 290 288 287 284 285 284 286 286 286 287 287 287 286 286 284 282 282 284 281 275 277 278 275 275 271 272 269 269 268 274 272 272 272 271 270 273 277 278 278 278 278 279 279 279 279 275 273 274 279
304 304 303 303 303 303 302 302 302 301 299 290 287 285 287 285 285 287 286 279 280 284 285 286 288 289 291 292 289 290 287 290 290 287 283 286 286 288 290 288 286 283 284 285 288 288 287 287 286 286 286 285 283 284 286 286 284 283 280 276 274 275 275 268 272 269 267 269 270 272 270 265 267 276 279 279 277 278 276 277 279 280 280 278 280 277 278
303 303 303 302 302 302 302 302 302 302 300 295 292 287 290 289 286 286 282 279 280 283 285 283 287 286 287 288 290 287 286 287 288 289 286 284 285 287 288 287 287 279 287 288 288 287 287 287 285 284 283 282 282 282 282 282 282 284 283 280 273 275 276 270 272 271 268 266 268 269 266 267 276 279 281 280 279 278 278 278 279 278 278 278 277 275 276
303 303 302 302 302 302 302 302 302 302 301 296 294 289 291 291 286 283 282 279 274 279 280 279 283 284 284 284 285 285 285 284 285 286 285 284 283 283 284 285 284 284 288 286 286 284 280 277 276 279 278 280 279 280 279 279 279 281 280 282 279 274 274 273 274 274 273 271 271 264 265 276 277 277 275 278 278 277 277 274 276 276 277 277 275 276 276
302 302 302 302 302 302 302 302 302 302 301 300 294 292 292 290 286 284 282 280 278 280 281 281 282 282 283 284 283 281 283 282 282 283 283 283 282 282 283 284 286 289 286 285 281 280 275 274 265 269 268 269 266 268 273 279 280 280 280 281 282 279 276 276 272 278 268 271 271 270 275 274 276 276 276 277 276 275 273 270 273 276 275 275 275 275 274
302 302 302 302 302 302 302 302 302 302 302 302 297 294 292 290 289 284 284 282 277 280 281 278 280 281 283 282 283 281 280 280 282 280 280 281 280 282 283 283 284 286 283 283 277 277 272 265 263 265 261 262 262 265 271 269 273 277 279 280 280 281 278 278 273 268 274 267 267 266 263 264 269 272 276 276 277 276 276 270 267 271 268 271 274 273 272
302 302 302 302 302 302 302 301 302 301 302 302 297 295 293 292 291 289 285 279 277 273 276 282 282 282 281 281 283 283 280 279 279 278 278 277 278 281 282 281 282 282 281 278 276 273 267 267 262 261 262 261 263 262 262 266 264 271 274 276 277 278 280 276 275 270 272 267 266 265 262 263 268 269 272 274 273 274 272 267 264 269 269 268 273 269 270
302 302 302 302 301 301 302 302 302 302 302 301 296 296 293 295 290 287 284 282 279 274 281 283 283 281 279 280 281 280 280 278 279 276 275 277 279 278 279 281 280 282 280 276 276 270 267 262 261 259 260 263 263 263 261 262 261 263 271 272 271 273 271 275 272 271 271 268 265 263 264 262 267 269 272 274 275 275 272 262 259 272 274 273 273 273 272
302 302 302 302 302 302 302 301 301 301 301 301 297 293 293 294 293 289 286 280 277 276 280 285 282 280 279 279 277 279 279 277 276 276 275 273 272 274 275 277 275 279 281 276 270 266 265 263 267 264 264 268 269 266 261 265 258 262 265 270 266 267 268 273 270 272 272 273 268 269 268 275 271 273 275 275 276 274 264 262 267 271 273 274 274 274 274
302 302 302 301 302 302 302 302 302 302 301 301 298 294 293 294 293 291 285 283 279 275 281 285 286 281 283 283 279 280 280 280 278 274 270 272 272 271 274 273 278 271 274 271 269 265 267 264 265 259 261 264 268 263 264 263 263 267 269 266 263 263 263 263 267 269 269 270 269 269 271 272 273 276 277 276 273 263 264 273 273 274 274 274 275 274 274
302 302 302 302 302 302 302 301 302 302 302 302 299 292 294 296 294 292 287 280 280 277 281 283 285 282 284 281 280 277 279 279 278 275 273 267 271 277 273 269 273 270 269 272 267 267 264 264 266 264 262 262 264 268 261 260 268 267 267 268 266 267 265 261 266 268 268 267 266 264 262 269 276 275 275 276 268 268 274 274 275 276 276 276 274 275 275
302 302 302 301 302 301 301 302 303 302 301 302 300 294 292 296 296 294 292 288 282 278 279 285 286 285 285 282 282 282 281 279 278 276 276 274 278 276 267 267 273 271 271 270 268 266 265 262 263 263 265 267 266 266 262 260 266 270 270 267 265 269 261 260 263 270 260 265 263 263 266 271 276 277 269 272 277 276 275 276 275 276 275 275 277 276 276
301 301 301 302 302 302 302 302 302 302 302 302 300 296 291 294 296 297 295 292 286 282 279 287 288 286 288 287 286 286 284 283 283 282 278 275 278 275 271 269 272 270 271 268 265 265 267 264 266 264 265 265 266 266 260 261 262 263 264 268 264 272 269 269 267 268 266 264 264 269 274 276 277 278 277 275 278 278 277 277 277 276 276 277 277 277 277
301 301 301 301 301 301 301 301 301 301 301 302 300 295 291 293 294 297 295 289 289 290 290 286 286 286 289 290 289 288 287 287 286 283 282 279 273 277 274 273 272 276 275 276 272 269 268 268 268 266 263 265 269 264 263 264 260 262 265 272 272 272 274 274 271 271 273 272 272 275 274 275 276 278 279 278 278 277 277 277 276 276 278 278 277 277 278
300 300 300 300 301 301 301 301 301 301 302 302 300 295 293 294 293 293 291 290 287 284 286 286 284 282 284 284 288 289 289 288 288 286 285 285 276 272 278 277 278 277 273 276 278 271 268 266 267 267 266 267 267 264 266 263 266 265 265 267 269 274 275 272 271 273 270 266 273 274 275 276 276 277 278 278 277 279 278 276 277 278 277 277 278 279 278
301 301 300 300 301 301 300 300 300 300 301 301 300 299 296 293 293 294 289 284 283 283 278 283 284 288 289 291 290 288 289 290 290 288 286 283 282 279 277 280 282 280 277 279 275 273 269 269 270 268 267 269 273 264 268 268 266 273 266 269 269 271 276 273 274 272 272 271 274 273 275 276 278 277 276 277 278 278 277 278 278 278 278 278 278 277 277
300 300 300 300 300 300 301 300 300 300 300 301 300 295 292 292 296 295 291 290 286 284 279 279 282 289 289 286 286 289 290 290 289 288 287 286 285 285 283 283 282 282 279 280 279 277 270 269 268 267 268 270 277 268 268 273 270 273 272 272 276 275 276 267 271 271 273 274 275 276 277 277 276 276 276 277 278 278 278 278 278 278 277 277 277 277 278
300 300 300 301 300 300 300 301 301 300 300 300 298 296 295 294 295 293 289 288 285 279 281 278 283 282 284 286 288 288 289 290 289 288 288 287 286 286 284 282 282 280 280 277 278 276 272 271 270 271 270 269 275 269 273 271 272 269 270 275 276 274 272 276 273 270 270 269 273 274 267 270 275 277 277 277 277 277 277 277 276 276 276 276 276 276 276
299 299 299 299 299 299 300 300 300 300 300 300 298 295 295 294 295 295 295 291 287 281 280 278 279 281 285 282 286 289 290 290 289 288 287 287 287 286 284 283 282 280 279 278 275 276 276 274 273 275 273 271 274 271 278 278 277 273 275 276 278 275 275 274 271 271 270 276 277 277 277 277 278 278 278 277 278 277 277 277 277 277 277 277 276 276 274
298 298 298 299 299 299 299 299 299 299 300 299 294 291 290 294 295 297 294 293 290 286 284 281 279 276 277 281 286 286 288 289 288 288 287 287 286 286 285 285 283 284 282 281 281 280 278 277 280 275 273 276 273 271 277 271 272 271 275 279 279 279 279 277 277 277 277 279 278 277 276 276 278 278 278 278 277 277 276 277 278 278 278 277 277 277 276
297 298 298 298 298 298 298 298 299 299 299 295 290 287 285 286 294 295 296 294 292 288 282 281 277 280 281 279 280 285 286 288 288 287 286 286 285 285 285 285 284 285 284 282 281 277 280 279 279 280 280 281 275 274 274 274 272 274 279 279 280 280 280 280 280 278 277 280 280 278 277 277 278 278 277 277 277 277 276 276 277 277 277 277 276 277 277
297 297 297 297 297 298 298 298 298 299 298 289 287 282 281 279 286 295 297 295 294 288 284 284 280 284 277 281 281 283 285 286 286 286 286 286 286 286 287 286 285 285 281 282 282 281 282 276 279 279 280 281 280 274 273 273 272 273 278 279 279 279 279 279 281 280 280 280 281 279 276 277 279 278 278 277 276 276 275 275 277 277 278 276 276 277 276
296 296 296 297 297 297 297 298 298 298 294 288 286 284 283 285 288 293 297 297 294 287 283 279 279 278 277 280 279 281 284 286 286 286 285 286 284 286 284 285 283 286 285 282 282 281 279 281 280 279 278 282 281 273 276 274 272 273 278 279 279 279 280 279 279 280 280 280 278 275 276 278 279 277 278 281 279 277 276 277 276 273 272 270 267 266 266
296 296 296 296 296 296 297 297 297 296 289 293 297 298 296 296 296 295 296 295 291 285 285 280 275 278 276 276 277 274 282 284 284 285 283 287 283 286 282 285 284 284 288 283 278 276 280 281 281 278 280 282 277 276 275 273 275 278 279 280 279 279 278 279 279 280 279 279 278 276 276 277 279 280 279 279 278 277 275 274 268 266 265 264 265 266 264
296 295 296 296 296 296 296 296 297 297 295 290 286 288 292 296 295 294 289 287 285 285 284 279 276 275 273 278 268 275 285 281 281 284 279 286 284 284 281 283 284 281 283 281 281 278 278 279 277 278 280 277 280 275 271 275 279 279 280 279 280 279 279 278 278 278 278 277 278 279 280 280 278 272 271 272 272 267 267 267 265 266 264 265 267 268 266
295 295 295 295 296 296 296 295 290 288 285 287 286 288 292 296 295 296 293 288 282 280 280 279 279 273 272 270 268 273 282 281 278 283 279 282 287 282 283 279 281 278 279 286 279 279 277 277 279 274 273 279 275 271 274 276 278 279 279 279 279 279 278 276 277 279 279 279 277 276 276 275 275 275 275 273 271 267 267 265 266 268 266 266 267 265 264
294 295 294 295 294 294 290 291 287 285 284 285 286 294 297 297 296 291 290 284 283 279 278 277 278 274 276 271 270 272 284 279 281 281 281 280 280 284 282 280 274 279 283 279 276 280 277 281 275 271 279 273 272 275 276 279 278 278 279 278 280 279 278 278 279 279 276 274 273 273 272 271 273 275 275 273 269 264 266 266 263 264 267 267 266 265 265
294 293 294 293 288 286 284 285 288 286 285 289 293 296 295 291 287 288 286 285 284 284 279 277 274 275 277 272 271 273 280 273 281 278 280 278 277 281 279 277 274 279 275 275 276 276 279 283 276 273 275 272 275 279 280 280 279 278 278 279 280 280 279 279 279 277 274 269 267 268 267 266 269 268 267 267 266 263 262 263 264 265 266 267 267 265 266
293 293 286 284 282 280 281 284 283 286 295 294 293 286 282 282 279 282 282 280 283 284 278 280 275 278 278 275 272 280 278 274 280 275 276 280 277 275 279 276 276 279 269 274 276 281 276 275 274 273 274 279 280 280 281 280 280 280 280 280 280 279 279 278 276 274 271 268 266 265 263 263 265 265 266 267 264 263 265 266 265 263 263 263 264 265 263
291 284 284 285 281 279 278 278 290 296 291 290 285 278 277 281 279 277 276 279 281 276 281 279 276 279 276 276 276 283 278 274 273 273 271 279 275 271 277 271 278 277 272 272 274 281 271 273 274 273 272 276 277 279 281 281 280 281 281 281 280 279 277 277 276 276 275 275 277 275 273 272 271 269 267 267 265 264 262 262 261 260 259 259 259 259 259
282 280 281 281 279 280 286 288 295 291 287 279 281 279 273 279 275 271 278 272 274 276 279 274 280 280 280 276 275 274 282 276 272 272 273 273 278 269 274 272 276 273 268 270 272 278 271 268 273 271 271 275 276 279 279 279 279 280 280 280 279 276 276 277 275 271 272 267 261 259 259 261 264 267 267 266 266 265 260 257 257 256 256 256 255 257 257
282 278 279 277 277 279 281 284 285 284 282 277 275 278 274 270 273 274 273 270 271 270 276 274 278 278 280 280 279 274 278 278 272 273 273 269 277 274 270 268 278 269 269 269 274 272 270 268 269 270 272 276 277 278 278 277 278 279 279 276 272 270 268 265 263 259 262 259 256 254 253 252 253 254 258 261 264 264 262 258 255 254 254 254 255 254 255
284 282 279 279 280 281 280 279 280 276 273 278 273 268 273 272 268 264 271 270 271 269 268 273 271 275 275 279 279 279 273 274 272 276 274 270 279 271 267 268 271 268 266 271 274 270 270 266 269 269 274 276 278 278 278 276 276 277 273 263 264 263 264 263 260 255 257 260 255 254 252 252 252 251 252 257 259 257 256 255 253 253 253 251 252 253 254
289 284 282 277 279 277 280 274 277 276 270 270 269 265 269 266 268 266 265 271 270 268 266 270 268 277 276 278 271 274 277 281 277 275 274 272 278 274 270 269 268 265 270 273 271 269 268 268 268 272 275 276 276 276 275 277 273 266 262 259 260 260 262 261 260 256 254 255 253 253 251 251 250 249 249 250 251 250 249 250 250 251 251 250 250 251 251
282 281 277 276 275 275 278 267 276 269 268 269 268 266 266 263 266 267 263 265 265 266 270 273 272 275 271 276 276 273 273 277 280 271 270 275 271 269 269 266 268 271 271 267 268 266 269 271 272 274 274 268 270 271 275 270 261 259 258 256 256 257 256 255 255 254 253 252 251 251 250 250 250 250 249 248 249 250 249 248 248 250 249 249 249 249 249
278 276 275 273 270 276 272 266 277 270 267 268 271 268 269 267 269 267 269 267 268 268 272 272 274 273 272 270 270 272 278 272 279 272 270 273 268 271 267 266 270 269 268 266 267 265 265 267 271 269 269 269 272 269 264 263 262 264 260 256 256 256 256 256 255 254 253 251 250 250 250 250 250 250 249 248 247 247 249 248 248 250 248 250 249 249 250
276 274 273 268 266 273 270 268 268 263 269 272 269 268 270 270 266 266 267 267 266 267 272 273 273 273 271 271 273 273 273 273 271 271 274 273 267 267 270 270 270 266 265 265 265 265 268 271 273 271 273 273 271 261 261 262 260 258 258 258 256 255 255 254 253 252 251 251 250 250 250 250 250 251 250 248 247 247 247 248 250 249 249 248 247 247 246
276 277 274 273 268 271 271 266 268 266 267 267 266 267 271 270 269 269 268 268 271 273 273 273 274 274 274 269 269 269 269 273 270 272 271 266 267 269 273 268 265 265 263 263 265 267 269 271 272 272 271 270 262 258 258 258 257 258 260 257 255 254 253 253 252 251 251 251 251 251 251 250 250 250 250 250 246 246 248 248 248 248 249 247 246 246 246
272 276 274 267 266 270 268 268 265 263 262 265 266 264 264 265 268 269 268 268 272 274 272 272 269 269 269 269 270 268 268 270 269 270 271 268 269 263 265 264 263 265 265 264 266 270 270 269 271 271 267 265 262 258 257 257 257 257 256 255 254 253 253 252 251 251 251 250 250 250 250 249 249 249 250 249 248 249 246 246 246 246 246 246 245 245 245
274 271 270 270 270 269 267 265 265 270 266 261 262 266 267 270 270 268 265 266 270 272 272 272 269 270 266 271 269 270 267 272 266 268 270 267 265 263 263 260 262 261 265 267 269 269 271 268 258 254 256 258 259 259 258 257 257 255 254 253 253 252 252 252 251 250 250 250 250 250 250 250 249 249 249 249 247 248 249 247 245 244 244 246 246 246 246
269 267 263 261 263 263 261 260 263 263 261 260 263 263 263 265 266 264 265 268 269 273 275 275 275 272 269 267 264 268 266 269 268 270 266 265 265 266 264 259 263 263 263 265 267 265 255 252 254 257 255 254 255 255 255 254 254 253 252 252 252 251 251 250 249 250 250 250 250 250 250 249 250 250 249 249 249 248 245 244 243 243 243 243 244 245 245
271 269 267 265 266 263 264 262 264 259 259 263 260 261 263 263 263 265 265 265 269 269 268 267 269 266 266 264 265 262 264 269 266 266 266 266 267 263 262 263 266 267 264 258 255 254 254 254 252 253 253 253 254 253 254 254 253 253 253 253 252 251 250 249 249 249 249 249 249 249 248 247 248 249 248 247 247 246 242 244 244 242 242 242 242 243 244
269 267 267 264 262 263 265 264 264 264 263 261 263 259 264 265 260 261 264 267 268 268 265 265 264 265 264 263 266 266 266 265 265 267 264 266 266 262 261 266 267 264 259 257 255 252 252 251 251 251 252 253 253 253 253 252 252 251 251 251 251 250 249 250 250 250 249 248 247 246 245 244 244 244 244 244 244 244 243 245 245 243 242 242 242 243 244
Wind_Speed
15 15 15 14 15 14 12 10 11 11 9 4 4 0 3 2 2 3 2 5 9 7 7 4 5 6 3 2 2 2 1 4 4 5 2 1 3 2 3 6 3 4 4 4 4 8 3 6 6 4 6 5 1 3 4 3 5 5 0 3 1 8 2 1 4 4 5 3 2 3 4 1 0 2 2 1 4 4 6 5 3 2 2 4 1 4 2
14 14 14 14 14 13 11 10 10 7 5 2 3 4 2 1 2 3 1 2 6 7 9 7 8 8 0 5 5 5 5 5 4 6 7 6 4 5 4 1 9 4 6 4 5 8 1 6 9 5 3 3 1 4 1 1 1 2 5 5 4 3 3 6 1 2 5 6 4 5 4 5 1 1 2 1 0 2 1 3 1 1 3 5 3 9 5
12 12 12 13 14 13 12 9 7 7 4 4 2 4 2 2 2 1 2 2 6 8 2 2 7 8 8 5 8 4 3 7 10 8 7 5 4 2 3 8 5 5 5 6 7 6 11 1 2 3 1 2 2 6 5 5 4 1 1 6 3 4 3 6 4 7 7 7 3 2 1 1 0 1 1 1 3 2 1 1 1 3 2 3 2 4 1
10 10 10 12 13 13 13 12 9 7 5 3 2 2 5 3 3 2 3 5 7 5 1 1 3 5 6 7 8 7 7 2 6 10 6 10 5 4 0 2 6 4 5 5 5 6 2 7 2 3 2 1 1 1 4 4 3 2 4 2 3 2 0 3 6 8 10 8 2 1 4 1 1 5 2 7 5 2 2 1 2 7 4 9 11 8 7
12 11 11 12 13 14 13 11 11 8 6 4 2 3 2 1 4 4 5 4 8 8 6 5 4 4 7 6 4 10 12 4 1 10 4 5 7 1 3 2 5 4 5 4 4 4 3 1 2 3 4 0 1 4 5 5 4 5 3 2 4 2 1 4 4 5 7 4 3 3 1 2 4 5 8 7 4 1 2 5 5 3 1 12 8 8 5
12 11 12 12 12 14 13 12 10 10 6 5 2 3 3 4 4 4 4 6 7 12 9 13 10 7 4 5 2 5 10 9 8 1 3 2 6 7 2 7 7 6 11 6 5 5 4 5 5 2 1 5 0 2 3 2 2 2 1 1 3 3 3 3 4 4 6 3 3 1 1 2 3 5 8 11 10 5 5 3 7 6 8 13 11 10 9
14 14 13 12 11 12 16 14 13 11 10 6 1 4 4 1 2 2 2 4 5 15 15 17 15 15 11 3 4 4 8 11 9 5 2 4 3 8 5 7 9 7 5 6 5 5 4 5 0 3 3 4 4 2 2 1 3 2 1 1 1 5 2 3 1 3 4 5 3 2 4 3 4 7 10 11 11 10 5 9 11 9 10 12 13 10 14
14 13 14 14 13 11 13 14 13 12 10 6 2 3 3 5 2 4 1 0 1 5 6 7 14 14 14 10 10 4 3 6 2 1 7 4 4 2 7 5 6 9 7 5 6 6 5 6 5 2 5 0 2 3 3 3 2 2 1 1 2 6 5 5 1 1 3 3 2 0 0 2 6 9 11 11 9 7 10 11 7 8 7 10 9 11 14
14 13 12 11 12 13 12 12 12 12 9 3 3 3 3 1 2 1 1 5 4 1 7 9 12 11 10 12 10 5 7 8 4 2 1 5 6 6 11 8 4 2 6 6 7 3 5 5 5 7 6 9 3 6 3 4 4 1 1 0 1 3 3 2 1 1 4 2 3 2 2 4 6 12 17 14 11 12 11 9 8 9 12 11 7 8 11
15 13 12 11 10 11 10 10 12 13 11 3 2 3 1 1 2 2 1 2 3 6 3 6 7 13 13 11 9 9 10 4 4 1 0 2 1 3 8 8 8 1 5 5 6 5 7 7 6 6 3 5 3 4 3 6 6 3 4 1 3 2 4 1 1 1 5 5 5 4 4 3 7 15 20 15 13 11 6 8 8 11 8 8 9 11 6
14 14 14 14 14 14 14 14 14 15 8 5 2 2 0 1 1 0 0 3 5 6 7 6 12 2 4 8 7 5 3 7 5 9 2 2 1 3 7 10 8 4 6 4 3 7 8 7 5 5 7 6 4 3 3 3 3 5 6 1 1 3 4 3 3 4 3 1 3 2 2 4 14 1 4 8 9 7 10 12 13 11 7 8 7 6 4
14 13 13 14 15 16 15 14 15 17 11 6 3 2 2 1 3 1 1 5 5 2 8 6 9 1 5 7 9 7 7 7 6 3 6 1 1 2 5 3 8 3 1 4 8 9 8 6 8 6 6 4 3 2 4 4 4 2 5 6 3 5 5 6 3 4 3 2 4 2 9 15 2 4 5 5 6 6 11 11 9 8 7 7 5 3 4
15 15 15 15 15 16 16 16 17 16 13 5 5 4 3 1 3 1 1 2 3 3 6 4 2 3 2 3 4 2 4 2 4 5 4 6 2 2 2 1 4 3 9 10 8 6 5 2 4 2 1 2 2 2 5 5 6 7 4 5 7 6 7 3 2 4 1 2 5 5 10 4 4 7 3 4 2 6 4 7 7 8 8 8 4 5 6
16 16 16 16 16 17 17 17 17 15 15 9 4 5 2 1 2 1 1 1 4 2 3 2 1 3 3 4 6 3 5 5 3 4 3 2 5 3 2 2 1 8 8 7 6 6 3 3 1 2 3 5 5 3 6 5 9 10 8 7 6 9 3 5 3 3 7 6 9 13 6 13 16 14 5 5 7 4 5 8 8 6 3 4 3 3 3
17 17 18 17 18 18 17 17 17 17 16 14 4 4 2 2 3 2 2 1 2 4 2 6 4 4 5 3 7 5 4 3 5 3 1 1 5 1 1 2 3 6 3 6 2 4 4 3 2 2 3 2 2 6 3 0 2 0 6 7 6 7 10 5 5 5 4 5 6 5 2 8 12 6 0 2 1 6 4 5 5 3 2 2 5 5 6
17 17 17 17 17 17 17 17 17 18 17 15 7 5 3 4 4 2 1 1 2 1 5 4 2 5 5 3 5 10 7 5 4 3 2 3 1 2 2 2 3 2 4 4 3 5 2 5 4 4 6 5 4 2 3 1 1 1 4 2 5 1 5 5 8 2 4 4 7 8 6 9 6 2 2 1 2 6 3 4 6 4 3 3 6 3 6
16 17 17 17 17 17 18 19 19 19 18 17 8 7 5 4 4 4 2 0 1 7 1 3 1 4 5 3 2 1 4 5 6 5 2 2 3 0 1 3 4 3 2 5 1 3 2 2 2 3 2 3 3 5 1 1 2 2 2 5 7 8 4 6 6 9 9 7 6 9 4 4 3 6 3 5 3 2 7 4 7 2 4 5 7 7 9
17 17 17 17 17 18 18 18 18 19 18 19 9 5 4 4 5 5 2 2 1 3 3 1 1 2 5 5 3 2 4 4 5 3 4 1 4 1 2 1 2 4 2 5 1 4 3 3 7 5 7 4 3 3 4 5 3 5 5 6 5 4 0 6 14 12 13 16 9 4 6 4 4 6 5 3 1 1 3 12 10 5 6 6 6 7 10
17 17 17 18 16 17 16 15 15 15 16 17 8 3 4 3 5 5 3 2 3 4 6 2 1 2 1 2 2 2 2 6 7 8 4 3 2 4 6 1 2 1 1 5 2 4 6 4 1 3 4 3 2 6 2 2 5 1 6 5 2 1 3 4 3 9 11 9 10 11 4 5 6 6 9 5 3 4 10 8 4 4 6 6 9 9 8
19 18 18 17 17 17 17 18 16 15 15 16 11 7 4 5 5 8 7 4 2 3 5 2 0 3 2 3 2 2 1 4 2 7 6 6 2 7 5 2 4 5 2 4 4 2 5 7 7 1 2 5 4 4 1 5 0 6 3 4 7 9 7 7 9 4 1 2 8 3 8 3 9 6 3 2 5 7 7 3 3 5 6 7 6 8 9
17 17 18 20 19 18 18 17 17 18 18 17 10 5 5 4 5 5 5 6 2 2 6 3 2 5 1 2 4 5 6 7 5 5 5 5 8 8 7 7 9 5 7 6 10 6 4 4 4 3 3 6 5 3 6 2 1 6 5 4 3 4 4 4 5 6 6 7 7 8 7 4 6 9 7 5 10 8 7 6 6 5 5 6 8 8 10
17 17 18 17 16 17 19 19 18 18 19 20 14 5 6 3 4 5 4 5 5 5 3 2 1 4 6 4 5 6 6 5 8 7 9 5 4 6 5 4 6 4 2 3 3 0 1 3 1 2 4 3 0 6 4 4 5 2 3 3 2 6 10 8 7 3 8 7 6 7 6 6 7 7 7 6 9 7 6 7 7 6 6 6 7 10 10
16 17 17 18 18 17 16 18 20 21 22 21 14 7 7 6 5 5 6 6 2 1 1 1 2 3 2 1 2 6 6 4 4 4 7 9 4 2 3 4 3 2 1 3 7 6 5 6 6 4 1 2 9 3 1 4 3 1 4 4 5 4 5 2 3 4 2 2 3 1 1 1 4 6 7 9 8 6 5 7 6 6 8 8 9 9 10
16 17 17 17 17 17 17 18 17 17 18 19 15 7 7 7 5 5 3 4 4 5 4 3 1 7 9 7 7 5 4 2 3 2 3 9 8 3 0 2 2 1 0 4 7 5 4 3 5 4 3 5 6 3 7 5 6 3 1 4 2 6 6 2 5 1 3 7 5 6 7 5 6 10 9 6 5 8 7 7 8 7 7 7 8 11 11
15 15 16 17 16 16 16 16 18 18 18 19 14 9 4 3 6 9 7 6 5 7 7 3 13 15 5 9 3 3 6 6 4 4 4 4 6 8 8 8 6 9 8 5 1 4 2 3 2 1 5 6 9 5 3 7 7 6 5 6 1 8 4 6 10 8 9 8 3 5 6 9 11 8 6 8 11 11 8 8 8 9 8 8 10 8 8
16 17 17 18 17 16 15 15 17 17 17 19 15 7 6 7 7 8 6 1 2 2 5 9 6 3 6 4 6 7 5 8 7 5 6 5 6 7 6 1 0 1 3 2 5 6 3 1 2 2 5 6 6 4 5 8 5 4 9 11 10 6 2 4 4 5 7 5 6 9 11 10 11 8 7 8 9 10 9 9 10 10 9 9 7 8 11
14 14 14 14 14 15 16 16 15 15 17 17 10 7 7 5 6 10 10 9 6 4 5 9 3 1 3 12 5 4 4 9 8 9 7 5 5 3 4 4 6 3 5 2 0 4 1 3 4 7 4 5 4 4 3 2 4 3 4 8 4 2 12 9 2 6 8 8 9 5 3 8 11 11 12 11 11 9 10 9 8 8 9 9 8 9 9
15 15 14 14 14 14 13 15 15 17 18 16 9 6 7 6 8 11 10 10 12 6 3 2 0 4 1 3 3 5 9 10 12 12 11 11 8 7 7 7 6 4 4 7 3 4 4 6 9 3 2 2 1 4 3 0 2 1 5 10 11 11 13 5 7 8 11 12 14 9 11 12 12 11 7 9 9 9 11 12 12 11 11 10 10 10 7
13 13 13 13 13 14 14 13 13 14 16 12 4 5 4 6 7 10 10 6 4 4 3 2 2 1 4 5 4 5 7 10 12 12 12 11 12 11 11 11 10 8 5 4 5 5 6 8 4 4 4 4 4 3 4 6 7 9 12 18 17 13 8 8 10 11 12 13 12 7 8 11 10 9 9 10 8 8 10 11 11 11 11 10 10 11 12
13 13 13 13 13 13 14 14 14 14 12 4 3 2 4 3 7 11 11 12 9 3 4 5 6 5 1 2 3 6 8 11 12 13 13 12 12 13 13 13 11 11 8 7 7 7 7 4 3 3 3 4 6 3 5 4 8 11 15 21 21 14 10 12 13 14 14 14 13 8 8 10 10 9 7 7 7 7 7 9 10 9 9 9 11 12 11
13 13 13 13 13 13 14 14 13 13 8 2 2 3 3 4 5 9 13 11 11 7 3 3 6 1 3 2 3 12 12 12 13 14 16 16 14 15 13 11 8 9 9 8 7 9 5 4 6 5 3 7 6 4 4 6 8 8 19 24 15 13 14 16 14 13 15 15 14 6 3 8 9 6 8 9 8 7 6 5 8 10 12 9 9 10 9
11 12 13 13 13 13 13 13 12 11 4 6 7 5 4 2 2 4 16 13 9 5 5 5 4 1 2 1 2 2 7 11 10 7 6 6 10 9 6 8 9 10 9 9 7 2 7 8 7 8 9 12 8 2 4 7 11 16 25 17 9 13 12 10 10 13 13 12 8 6 9 13 11 11 13 13 9 7 9 10 8 5 5 4 1 1 2
11 12 12 12 12 13 13 14 14 9 4 7 10 8 6 5 5 2 9 8 5 2 2 2 4 1 2 4 1 3 4 4 8 8 9 9 8 7 6 8 7 6 8 6 4 6 4 7 6 9 10 7 4 4 8 10 16 26 21 14 13 12 10 9 11 12 10 8 9 11 14 15 14 12 10 10 8 7 7 7 4 3 4 5 5 4 2
11 11 11 11 11 12 13 13 14 14 8 3 4 7 4 9 7 12 6 2 2 1 2 3 2 3 3 2 4 4 7 7 6 9 6 5 3 5 6 5 7 6 5 10 3 2 1 3 8 8 3 4 7 3 5 14 25 21 16 15 16 14 9 8 9 11 10 9 9 13 15 14 9 2 1 4 6 2 0 3 6 5 6 6 7 8 6
11 10 10 10 10 10 10 10 5 3 4 3 2 0 7 11 11 15 13 7 4 2 1 2 2 3 1 2 3 5 3 4 5 8 9 3 7 7 4 5 4 7 4 4 3 5 6 8 6 5 8 6 6 7 11 18 20 18 15 16 18 17 11 10 13 16 14 10 7 7 8 6 7 9 10 8 8 6 5 5 7 8 6 7 8 5 5
11 10 9 8 7 4 1 1 2 3 3 3 2 7 15 16 15 8 8 2 1 2 3 3 4 6 5 6 5 2 4 4 2 3 3 2 1 4 4 5 6 8 2 5 7 7 9 7 6 8 8 9 12 13 18 21 21 18 17 19 20 17 16 18 18 14 6 5 7 7 7 6 8 13 11 9 6 4 5 6 4 3 7 7 8 7 5
9 8 6 3 1 4 2 3 2 4 3 5 6 8 8 11 7 4 2 2 2 1 3 1 2 6 8 4 1 2 5 4 5 3 4 4 3 1 4 2 8 2 1 3 4 10 9 3 4 6 9 12 15 19 21 18 13 14 18 19 18 16 14 13 12 10 7 5 3 3 3 6 7 7 6 6 6 4 3 6 10 11 12 14 10 8 9
8 6 5 2 2 2 3 4 4 5 10 14 13 7 2 1 3 3 1 3 2 4 3 2 7 2 2 4 4 3 5 3 4 6 2 3 2 3 2 2 4 4 7 6 7 4 1 3 5 7 11 12 15 16 17 13 12 14 16 16 15 13 12 10 8 6 7 7 6 6 4 4 7 6 7 8 6 8 12 8 4 4 3 2 2 3 3
7 3 2 2 2 3 3 2 6 18 11 4 3 3 0 2 3 3 4 2 2 5 3 6 10 6 5 7 2 2 6 6 4 3 5 4 5 4 3 5 3 4 5 2 5 9 4 4 4 6 9 11 15 19 21 14 12 14 16 16 15 12 7 8 9 13 13 14 15 12 13 13 14 13 9 8 6 6 4 3 4 4 4 3 3 3 4
3 3 3 3 5 2 1 2 7 8 3 2 1 3 3 3 4 3 3 2 2 2 4 8 8 8 10 11 8 6 3 6 8 6 5 2 1 5 2 3 2 4 7 8 4 6 6 7 6 6 12 11 15 20 17 12 14 17 17 16 12 8 7 10 10 7 8 4 1 3 2 3 4 6 7 9 8 8 5 4 4 4 5 5 5 6 7
3 2 2 3 2 3 1 1 3 2 4 2 0 1 2 1 3 1 3 3 4 3 2 3 4 7 8 8 7 8 1 3 0 3 3 5 1 5 2 2 1 3 4 6 2 4 2 1 4 11 15 14 16 17 14 12 14 16 16 11 7 5 5 3 3 3 6 6 3 3 3 4 4 3 4 6 8 8 8 8 7 6 6 5 5 4 4
5 5 3 2 2 2 3 2 1 1 2 1 3 4 3 1 2 3 2 6 6 2 3 4 5 9 9 13 10 6 3 1 2 2 2 4 4 4 2 1 1 5 4 2 4 1 3 6 8 10 10 14 17 15 12 11 13 16 12 3 4 5 6 7 8 1 1 7 6 5 3 4 4 3 1 2 4 4 5 5 5 4 4 3 4 4 3
12 9 6 2 1 1 1 1 2 2 3 1 1 2 2 4 4 5 3 1 1 3 4 2 1 2 1 4 1 1 5 2 4 3 3 4 2 1 2 2 2 4 4 3 3 3 6 8 10 14 12 14 13 11 10 14 10 2 3 3 3 3 6 8 8 7 4 6 7 6 6 6 6 3 2 4 8 9 7 5 5 5 5 4 4 4 3
4 2 4 0 1 3 3 4 2 3 1 2 4 7 3 2 2 1 1 4 2 2 5 8 6 9 5 3 6 2 1 1 3 2 1 1 4 3 3 4 5 2 4 1 3 8 10 6 11 14 10 6 5 8 14 9 5 5 3 2 3 4 6 7 9 10 8 6 7 7 6 7 7 5 5 5 5 10 7 6 4 5 5 4 4 3 1
4 1 2 1 2 3 4 3 2 3 7 5 4 3 4 10 9 7 9 3 4 7 5 4 6 6 6 2 4 1 3 3 1 4 3 4 0 2 3 4 2 2 4 4 2 1 1 7 10 8 6 7 12 9 2 5 9 10 9 5 3 4 6 9 7 7 7 6 7 7 7 5 7 9 7 7 5 4 8 7 4 5 4 4 2 1 0
3 4 4 3 3 3 4 2 1 2 2 3 5 6 7 7 4 3 3 2 3 2 8 8 6 6 5 2 6 5 3 3 3 4 2 2 4 5 3 1 1 3 2 3 5 9 13 15 10 7 10 12 8 4 6 5 4 6 12 11 9 7 5 7 7 7 8 8 6 7 7 5 6 8 8 4 5 5 5 5 4 5 4 4 2 2 1
2 2 2 1 2 2 3 4 5 4 3 1 2 4 6 6 5 5 3 4 6 7 6 3 6 5 8 3 3 1 0 2 4 2 4 2 4 0 1 3 4 4 5 5 7 7 9 10 9 9 9 8 5 4 4 6 5 7 6 6 9 8 7 8 8 9 7 7 8 8 7 7 6 6 7 7 4 4 4 3 4 4 4 3 2 1 1
4 1 2 3 4 3 8 5 1 1 0 1 1 2 1 0 1 2 1 1 2 6 7 5 2 1 2 2 4 4 1 1 2 3 3 2 3 2 1 0 3 2 3 4 10 10 9 8 9 7 4 2 7 8 6 6 6 6 6 9 10 10 9 10 9 8 9 9 9 8 7 7 7 6 6 6 5 4 4 4 4 3 3 2 2 2 2
2 3 4 3 1 2 1 0 3 7 4 0 0 1 2 4 3 4 1 0 2 2 1 4 3 5 2 2 4 3 2 3 3 4 3 1 4 4 5 5 4 4 5 8 9 9 9 4 2 2 2 4 4 6 6 6 7 7 7 9 8 9 8 8 8 8 7 7 7 8 8 7 6 6 5 5 5 4 3 4 4 4 4 4 4 3 3
3 1 3 2 2 2 1 1 3 5 1 1 0 2 0 2 2 2 1 1 2 6 3 4 1 3 0 3 1 2 2 2 3 1 4 5 4 2 2 2 4 6 7 8 7 1 5 5 3 2 2 2 2 2 5 5 5 6 5 6 7 7 7 10 9 7 7 7 7 7 7 7 5 5 6 6 4 3 3 1 1 3 3 3 3 3 3
1 1 2 1 5 5 5 4 7 4 3 5 4 6 4 5 4 2 2 1 4 4 3 3 2 3 0 1 0 1 3 2 1 3 3 4 2 3 4 6 7 5 1 1 0 0 1 4 3 1 1 2 4 3 4 6 7 7 7 7 8 8 8 7 7 7 6 6 6 7 7 5 3 4 3 3 3 2 0 0 1 2 2 2 3 4 4
2 3 2 1 2 1 1 1 1 4 5 5 7 2 2 4 1 1 2 1 4 5 4 2 4 2 2 4 3 1 1 3 2 2 2 4 2 3 3 5 3 0 2 1 1 3 4 3 5 2 0 1 2 3 6 8 10 10 10 9 9 9 8 8 7 8 8 6 5 6 4 4 4 3 2 3 2 3 3 1 0 1 1 2 3 6 5
Wind_Direction
140 139 137 135 132 127 123 114 120 131 140 98 141 132 92 125 139 24 292 169 194 184 217 185 195 214 225 90 269 151 173 184 166 159 153 180 166 162 191 197 177 245 195 199 202 157 220 185 211 197 217 222 225 249 227 148 59 82 322 45 286 67 96 9 288 292 300 320 340 28 33 132 130 15 29 179 204 190 189 231 193 200 315 308 319 253 208
144 143 142 140 137 130 125 128 127 125 104 123 130 86 116 96 130 106 243 207 226 211 202 200 199 214 30 181 224 183 205 159 189 196 181 171 177 184 191 234 205 228 189 189 218 162 270 221 207 227 181 178 81 359 355 149 101 103 221 139 244 92 266 133 259 297 330 342 348 11 337 48 90 190 262 145 172 102 162 101 173 145 220 210 161 247 235
152 153 155 146 142 138 131 129 131 129 112 84 112 125 146 111 58 62 127 177 234 221 216 233 208 216 211 194 215 204 211 216 201 175 194 188 173 133 224 203 159 212 174 203 212 199 205 258 272 154 150 162 23 343 64 87 107 2 332 127 125 113 187 124 167 195 233 261 231 233 207 154 307 247 327 304 155 217 81 272 177 203 218 120 226 258 233
160 165 162 156 151 145 141 142 143 136 127 86 82 164 96 183 171 182 137 190 232 266 225 345 262 212 206 222 233 214 229 222 195 181 215 187 199 188 185 202 164 178 175 200 203 225 226 176 233 141 186 117 349 270 22 57 131 228 90 66 72 161 158 150 174 182 225 229 176 222 100 360 245 278 247 272 277 229 217 181 207 245 267 269 247 241 265
171 174 175 168 162 154 152 149 146 147 122 99 114 19 98 206 174 170 171 146 232 239 213 217 196 224 186 212 185 218 215 208 284 187 222 199 187 226 179 208 178 215 168 196 214 195 202 212 153 195 138 81 171 26 87 47 56 103 76 8 81 73 277 247 166 212 227 206 210 210 110 197 225 244 269 269 244 212 150 175 224 162 138 258 248 245 240
187 188 184 180 173 166 160 153 149 152 152 130 87 135 184 165 242 178 198 176 194 213 228 216 218 229 238 241 236 210 198 197 213 174 220 145 184 174 263 204 210 179 182 163 196 193 202 170 215 147 149 110 339 49 353 73 303 44 59 10 118 137 189 273 134 254 255 252 251 360 57 211 202 240 255 262 265 243 221 221 221 217 227 257 264 273 267
192 190 189 189 196 184 165 168 162 160 164 151 87 154 243 207 318 231 271 193 215 206 204 198 206 218 214 252 232 228 193 200 201 166 172 181 241 196 212 203 190 183 170 160 195 172 180 240 262 176 169 162 146 136 11 323 27 65 52 31 100 85 285 216 129 217 275 275 288 270 227 254 266 254 251 254 256 260 241 241 238 217 238 247 263 269 264
199 208 210 212 206 205 196 182 161 164 164 142 115 251 171 198 182 248 315 172 299 221 191 182 199 219 211 221 219 211 167 209 183 177 161 193 226 176 202 188 185 187 188 168 189 210 194 166 186 227 123 104 102 190 181 163 15 62 115 125 316 104 264 105 360 101 284 256 114 39 68 262 273 275 268 258 264 274 251 256 262 250 249 251 250 259 267
218 218 213 212 210 206 204 201 181 171 168 95 185 259 184 256 112 154 54 207 221 170 178 182 195 209 209 229 223 220 202 229 159 188 304 172 182 184 200 155 116 146 169 196 205 200 150 152 169 171 160 169 217 128 272 128 153 72 72 45 305 78 244 61 147 61 299 268 131 241 255 265 255 267 266 258 248 252 249 246 236 242 247 251 259 253 257
222 217 210 196 196 197 203 204 193 191 168 113 186 221 292 55 283 111 204 259 203 167 219 182 170 215 210 210 199 213 210 209 149 219 90 73 338 216 172 170 130 174 150 177 168 173 135 128 129 122 117 121 94 100 157 138 143 172 150 232 131 154 141 141 82 253 255 265 123 201 244 319 302 253 248 250 246 237 245 246 233 226 236 253 249 249 246
222 213 207 202 199 201 204 205 201 196 180 164 153 240 333 149 239 113 251 151 295 177 168 207 201 221 146 193 218 220 178 197 190 199 247 70 329 340 151 150 152 160 180 172 157 127 113 106 97 76 75 76 80 77 100 102 142 152 161 141 227 132 144 181 166 173 236 262 96 90 116 254 243 243 161 198 225 219 228 240 243 245 209 225 224 249 236
218 215 213 213 210 207 205 208 207 205 190 186 157 201 243 168 91 105 171 201 253 172 181 206 198 231 170 194 202 204 206 193 203 188 180 157 249 358 85 104 125 152 169 116 109 102 95 69 60 55 60 72 91 81 116 166 249 225 176 164 167 173 167 191 172 150 231 127 95 214 221 242 274 172 189 181 195 202 228 242 242 246 241 250 271 266 209
216 212 210 209 213 215 210 207 214 213 194 174 168 203 265 146 124 158 177 162 244 200 185 254 222 195 185 152 159 205 158 94 90 98 95 131 109 37 9 138 140 160 134 135 123 89 75 97 31 98 20 47 2 299 251 220 221 233 218 176 157 185 163 170 220 146 21 160 203 233 231 243 326 284 323 295 209 232 240 286 270 255 235 223 224 245 231
215 213 211 211 212 213 213 211 214 215 202 202 159 210 208 124 124 133 175 192 266 230 184 279 344 149 132 165 134 123 101 77 42 63 89 25 115 90 348 59 192 139 146 121 82 86 48 26 32 20 311 16 357 350 261 208 217 205 212 218 183 162 148 168 219 225 200 223 212 237 344 321 294 285 257 184 230 212 166 239 261 241 229 160 177 213 226
215 214 215 212 212 215 213 216 216 210 204 201 196 215 205 175 136 138 283 91 222 298 212 189 218 186 151 159 141 109 91 174 118 36 35 13 74 323 127 335 36 120 125 92 58 50 141 99 54 123 330 75 207 242 332 303 340 266 226 211 174 171 179 215 165 270 197 151 248 295 306 254 260 248 238 359 120 121 135 103 294 291 283 195 156 193 199
220 219 219 217 218 219 214 215 218 215 207 196 194 216 215 199 155 110 125 146 161 294 269 208 201 144 149 176 179 157 168 140 140 95 52 36 24 59 346 360 345 69 60 70 108 105 112 124 205 133 204 203 233 80 287 48 332 311 43 174 166 217 177 173 204 209 232 210 216 222 226 242 215 243 197 202 148 116 115 63 286 267 217 230 174 175 188
228 226 224 221 220 222 220 214 215 216 202 195 187 202 225 198 159 152 132 16 131 212 261 357 208 122 96 85 74 66 148 149 161 138 186 153 159 57 318 348 337 62 113 82 82 84 88 97 131 140 280 168 126 215 223 45 177 327 16 53 115 151 175 153 198 222 218 220 229 234 222 244 268 207 215 200 147 96 55 346 271 227 233 198 161 174 185
228 225 221 221 223 222 222 222 220 217 209 196 182 169 214 202 176 129 111 151 142 278 259 145 54 129 169 183 165 229 102 95 74 62 97 164 94 155 202 36 48 312 124 112 163 87 161 152 183 198 214 250 164 90 205 169 170 196 165 159 147 149 263 200 209 218 227 225 241 281 276 241 190 198 224 202 139 70 248 245 240 235 210 204 186 189 190
231 224 220 217 218 221 221 221 225 230 224 201 172 174 247 206 180 142 123 149 181 223 270 305 164 155 226 94 131 169 175 162 147 113 149 83 242 194 137 208 137 146 12 148 81 149 169 236 69 131 162 264 129 202 209 122 219 70 123 83 50 349 104 320 280 224 225 225 228 235 266 238 174 246 170 164 91 213 222 237 196 166 213 202 189 192 195
229 229 223 219 217 220 218 218 219 226 227 217 176 188 195 188 197 170 162 175 195 219 277 251 214 228 257 141 172 99 74 65 142 127 174 171 232 111 52 47 309 87 10 114 178 218 128 205 200 161 218 206 229 161 42 253 277 169 180 194 137 192 147 216 207 212 246 159 239 257 258 265 161 154 40 229 160 228 207 196 243 188 194 184 204 194 209
225 227 229 227 223 223 224 220 217 220 227 221 193 171 206 196 178 191 161 154 134 246 288 253 195 235 213 187 196 173 158 174 166 142 202 149 180 123 147 203 189 152 186 160 174 218 160 202 213 183 213 152 239 76 193 166 306 262 130 185 175 207 110 229 238 176 166 181 207 206 211 215 184 147 186 216 205 200 181 155 219 237 195 191 199 215 210
224 227 229 230 229 227 228 226 223 222 225 223 198 179 206 198 174 181 170 162 197 210 205 262 222 220 231 189 181 176 175 176 203 152 139 129 220 167 186 144 176 143 189 118 70 360 310 180 99 124 202 232 345 197 172 107 220 266 331 102 314 204 192 181 207 208 153 200 211 237 217 191 192 180 198 210 224 216 195 182 196 193 228 206 198 218 223
223 223 225 225 225 224 228 232 226 223 219 222 207 198 203 165 183 185 139 207 274 289 310 354 329 300 321 340 206 181 199 184 127 104 131 125 191 230 144 132 203 196 160 123 169 161 182 132 203 157 82 216 182 181 275 165 211 220 169 243 199 265 228 345 3 250 126 247 182 201 282 190 173 236 210 212 235 242 203 198 212 226 215 183 197 219 221
225 226 225 227 229 227 220 223 230 229 226 224 212 190 205 189 179 136 151 196 198 235 246 201 272 246 208 217 236 232 221 226 185 184 181 135 148 227 310 229 178 90 263 216 172 138 200 128 201 134 185 225 103 166 180 257 233 187 109 294 260 258 253 191 214 261 43 269 151 188 233 250 234 223 237 248 235 231 211 201 209 223 217 214 217 211 213
219 222 228 226 225 229 230 228 226 226 223 225 218 201 167 173 143 168 166 196 186 194 225 197 218 230 185 193 176 177 213 192 199 178 136 133 143 162 199 206 182 169 207 190 136 81 65 128 232 156 202 248 129 234 199 163 274 163 213 240 350 286 202 211 235 242 222 244 202 218 224 224 238 227 209 231 238 243 241 218 217 223 229 216 217 210 225
224 223 224 228 227 222 224 227 230 231 227 224 213 181 189 197 172 167 178 136 66 145 219 241 260 116 132 139 196 207 157 178 197 205 196 184 173 177 176 134 85 67 117 118 118 169 168 108 155 175 163 268 137 164 197 197 193 220 189 232 210 222 120 222 162 205 249 279 265 249 252 262 265 252 229 225 222 224 236 236 236 238 241 242 235 204 213
223 224 229 230 229 230 227 223 220 228 234 233 219 189 196 193 163 174 182 170 158 285 208 241 196 318 196 208 199 133 165 183 193 204 217 210 177 156 150 154 170 134 136 120 78 141 164 171 165 224 163 234 134 189 138 261 173 199 219 246 241 214 245 237 270 271 249 240 240 189 221 254 252 250 236 232 231 224 229 236 240 238 238 237 234 238 229
221 222 220 226 230 229 231 235 234 227 224 223 220 208 200 190 185 195 198 178 184 212 131 235 138 237 63 306 232 177 186 190 194 203 207 213 204 177 182 180 160 140 166 145 191 171 182 188 225 200 134 241 150 272 162 303 79 8 237 245 227 220 237 191 199 220 248 247 246 211 223 245 248 249 240 228 230 220 223 231 236 237 230 224 218 232 241
220 224 225 225 228 231 232 231 236 241 238 228 167 207 234 221 199 204 192 221 221 235 235 168 39 17 200 237 134 177 213 188 198 203 207 209 206 204 200 196 197 195 165 178 186 189 191 220 181 178 194 203 106 220 188 221 218 227 232 241 239 232 228 226 235 241 252 254 253 213 201 232 249 244 239 238 229 215 223 229 229 233 231 225 219 218 215
223 225 227 230 231 231 231 227 228 230 233 204 133 136 196 271 211 209 191 182 187 176 191 211 220 241 27 62 195 194 190 195 198 203 204 205 206 207 209 204 210 202 194 190 181 207 200 213 202 211 187 155 161 211 187 202 224 232 240 245 246 248 238 233 234 234 245 246 253 232 215 234 243 241 234 234 234 209 219 230 226 231 236 221 217 223 221
228 228 227 232 236 235 234 233 232 232 221 126 118 157 181 232 233 198 191 183 176 174 209 195 230 74 352 243 154 197 193 186 196 201 205 204 205 207 212 204 209 193 201 201 204 216 175 194 200 207 167 192 167 177 182 176 232 241 244 242 237 240 237 236 234 236 242 250 255 250 211 239 250 272 271 253 246 229 226 242 236 227 233 231 223 220 216
231 240 239 234 234 238 242 240 238 237 177 165 196 191 199 194 263 199 190 179 157 156 169 205 229 170 234 260 216 249 195 194 188 192 210 179 219 211 209 184 210 203 202 210 203 142 216 211 207 203 202 204 180 100 177 195 230 242 247 247 233 235 236 237 236 237 236 239 245 280 270 261 249 237 251 255 251 235 223 236 240 227 218 196 146 115 166
226 229 232 238 243 241 239 242 237 220 180 220 233 237 115 83 32 110 180 151 154 182 146 173 184 197 174 248 24 300 165 148 198 187 214 193 214 181 212 195 202 207 204 209 186 212 198 194 199 217 217 146 146 194 205 206 222 236 245 255 252 243 232 226 231 237 234 221 184 216 240 247 251 244 241 252 255 246 241 232 192 113 120 136 150 145 129
222 229 234 233 237 244 250 246 246 238 218 188 229 221 183 118 107 111 96 57 95 154 133 149 180 173 224 7 35 277 149 180 187 178 216 179 132 169 199 186 194 211 195 207 189 95 332 164 209 221 114 167 186 177 212 224 229 237 242 246 250 252 241 234 238 241 233 218 208 217 232 244 261 313 267 237 246 281 56 132 135 154 187 187 201 195 173
220 223 227 229 229 234 242 249 261 224 196 208 238 225 171 175 151 152 153 167 163 237 141 250 136 146 109 338 180 258 172 133 179 173 200 198 141 183 163 180 179 203 213 153 197 167 190 211 170 158 195 168 189 216 226 235 233 229 232 241 245 247 251 253 252 242 237 230 220 228 236 250 258 260 250 244 233 206 171 190 191 177 185 217 214 192 172
221 217 220 225 230 214 58 252 141 170 204 191 161 153 169 187 187 165 165 94 94 183 172 222 160 204 168 216 222 259 118 208 159 107 176 104 217 189 179 175 217 207 128 158 208 176 213 181 125 210 169 190 214 212 227 229 229 227 228 232 237 233 227 227 238 249 240 220 223 231 235 231 227 240 245 243 223 200 199 186 196 202 219 219 216 203 196
216 217 220 213 103 70 200 207 168 180 204 141 173 137 123 88 40 68 83 167 227 128 188 191 160 223 186 216 65 243 116 188 140 158 166 169 203 113 161 190 207 156 65 195 182 210 228 126 186 209 193 211 226 228 232 236 229 228 234 234 237 237 236 237 237 242 249 220 214 234 221 228 241 253 256 239 214 180 156 195 197 190 206 217 209 196 210
199 153 107 92 85 178 217 200 199 184 159 148 113 90 324 1 110 142 184 218 222 134 225 160 236 205 67 149 237 188 117 222 118 168 166 174 119 250 145 195 210 168 223 201 217 125 60 151 207 208 227 224 240 248 249 241 235 236 242 246 244 239 232 231 219 199 222 246 262 246 254 254 252 244 211 233 196 195 211 217 213 231 259 272 219 177 134
129 86 61 162 168 207 197 240 185 163 163 149 143 97 270 190 145 185 195 181 188 201 198 183 222 185 159 195 194 126 166 169 147 166 173 208 122 259 139 194 218 146 252 147 251 130 231 203 196 217 239 224 235 243 243 236 237 240 240 243 244 241 212 214 198 197 206 215 225 217 196 210 220 233 213 227 228 225 220 198 194 192 189 163 143 144 156
79 120 158 168 204 191 317 246 183 156 108 117 264 119 175 173 159 219 130 148 210 219 166 220 203 203 194 204 175 221 166 135 163 194 179 257 146 170 218 140 236 135 218 203 213 142 191 220 201 212 242 230 236 241 241 229 233 240 243 244 243 236 206 207 212 221 215 220 147 137 147 192 187 194 187 202 206 209 210 196 180 162 164 170 163 162 177
144 113 119 188 215 162 211 128 81 130 158 162 315 241 134 256 201 187 125 206 193 233 172 181 137 192 205 210 201 216 197 99 282 119 134 196 234 84 81 171 197 145 218 196 185 111 175 206 211 220 230 227 233 239 234 225 230 238 242 243 228 205 174 146 124 124 138 137 121 103 112 123 123 150 180 183 187 199 196 182 176 175 158 153 156 152 112
179 161 181 136 132 109 57 28 141 116 314 213 152 227 185 186 57 8 193 173 205 185 270 161 190 185 200 186 199 164 259 157 131 145 130 212 207 148 205 200 253 176 225 195 117 144 153 217 224 236 229 230 235 237 230 227 230 234 232 149 150 150 153 154 150 94 123 153 147 136 119 110 98 74 35 158 156 153 143 146 137 127 129 102 90 101 102
114 107 92 75 71 13 151 146 221 149 190 232 119 238 184 159 194 159 223 204 287 123 253 55 227 130 352 92 358 163 183 157 174 201 161 205 93 94 157 211 149 224 195 86 139 184 199 219 233 239 232 231 230 230 226 227 233 207 129 123 149 157 163 158 151 132 80 109 131 133 132 108 87 64 45 86 99 77 58 86 122 121 111 111 106 103 99
72 53 75 93 114 259 128 229 176 53 258 189 167 201 165 197 270 111 143 228 199 198 204 151 197 135 207 191 157 136 50 285 150 76 316 207 120 173 168 207 201 243 50 63 168 209 218 226 231 240 236 232 230 219 229 213 141 130 111 76 79 100 102 103 102 108 97 82 89 100 101 101 103 77 59 49 86 114 107 88 89 106 104 102 102 100 79
103 119 95 74 169 217 94 244 128 162 208 214 188 200 175 206 206 184 199 226 122 204 175 147 144 157 170 214 48 293 153 187 78 128 213 132 59 199 152 219 155 102 167 209 195 291 360 250 241 243 238 227 230 228 179 164 175 175 166 131 128 133 141 138 135 124 125 122 128 122 110 112 98 83 73 79 75 97 119 128 127 107 107 108 107 94 50
149 168 144 145 197 211 162 228 110 267 262 198 209 191 202 217 174 208 245 125 140 163 149 179 166 154 170 214 149 192 126 133 123 207 169 178 158 213 183 46 85 151 212 185 200 210 219 232 233 227 229 234 229 186 179 171 129 114 132 168 184 165 158 135 132 129 132 131 126 117 121 119 118 116 107 97 99 97 100 117 123 129 134 119 150 183 230
151 180 149 193 195 229 130 202 213 199 181 192 227 189 197 204 204 187 195 154 171 186 172 171 160 182 168 193 94 342 126 163 161 208 94 147 192 253 37 140 208 186 183 212 215 233 239 238 232 227 224 222 185 158 159 148 156 165 169 134 146 150 142 136 135 134 139 132 126 123 123 126 122 121 118 111 110 123 137 129 132 143 142 172 186 183 194
173 154 117 174 200 169 193 228 145 70 318 148 199 190 230 139 71 253 305 327 190 138 142 119 87 24 6 309 76 175 178 227 128 254 150 196 52 55 179 45 236 229 196 200 225 224 237 236 229 231 239 174 161 157 161 164 177 174 152 151 151 149 150 143 138 139 143 141 137 134 131 132 136 134 134 137 134 144 152 166 168 153 152 154 166 190 204
113 135 164 195 203 152 192 45 126 209 234 315 306 82 127 123 208 243 253 219 110 185 204 118 188 112 202 148 140 155 227 206 160 212 96 199 165 196 171 206 171 222 233 205 230 225 231 259 358 40 93 115 146 163 167 170 165 160 156 153 152 146 139 134 135 137 136 130 134 135 132 128 127 125 124 123 128 149 153 140 147 163 167 181 191 202 223
93 23 26 71 68 321 225 59 118 236 312 352 344 259 225 157 233 262 193 147 165 124 107 94 60 68 201 93 190 164 216 182 186 171 123 192 190 214 107 218 216 200 223 212 217 306 20 327 321 15 47 69 81 108 140 135 121 118 118 121 125 126 129 130 130 133 134 134 134 132 129 127 132 137 149 160 152 130 107 122 161 191 207 191 184 204 226
352 112 209 175 155 210 129 183 186 222 242 225 199 228 180 208 196 204 356 130 133 97 92 148 161 102 76 15 269 180 252 114 62 227 179 204 162 161 202 215 226 225 271 5 291 320 334 5 358 315 56 75 93 90 98 110 119 118 118 116 117 115 115 114 118 118 111 106 111 114 117 125 120 114 98 89 95 82 14 328 234 195 197 197 186 198 221
115 146 211 292 38 72 142 140 96 181 188 201 186 242 144 198 248 240 320 88 138 138 199 136 97 140 118 194 211 196 5 39 231 144 164 247 152 175 218 223 256 328 251 274 326 3 12 2 358 2 45 74 105 116 116 112 105 104 114 124 127 125 124 122 118 114 110 109 108 112 111 105 96 94 100 92 95 79 72 84 191 203 202 197 207 205 214